Location: Unspecified
(0.0000°N, 0.0000°E)
Time: 19:35:22
(UTC+01:00)

Resurs 01 Rocket - Visible Passes

Search period start: 26 November 2014 00:00
Search period end: 06 December 2014 00:00
Orbit: 636 x 646 km, 98.2° (Epoch: 26 November)

Date Brightness Start Highest point End Pass type
(mag) Time Alt. Az. Time Alt. Az. Time Alt. Az.
27 Nov 2.0 19:10:50 10° S 19:15:16 71° WSW 19:19:41 10° NNW visible
28 Nov 3.7 19:34:58 10° SSW 19:38:56 32° WSW 19:42:54 10° NW visible
29 Nov 4.9 06:11:53 10° ENE 06:14:29 16° ESE 06:17:05 10° SE visible
29 Nov 4.8 19:59:57 10° SW 20:02:35 16° WSW 20:05:13 10° WNW visible
01 Dec 1.9 19:09:15 10° S 19:13:42 76° WSW 19:18:08 10° NNW visible
02 Dec 3.5 19:33:19 10° SSW 19:37:22 34° WSW 19:41:23 10° NW visible
03 Dec 4.9 06:10:30 10° ENE 06:12:54 15° ESE 06:15:18 10° SE visible
03 Dec 4.7 19:58:12 10° SW 20:01:01 17° WSW 20:03:49 10° WNW visible
